Tracking 35334 objects as of 13-Sep-2026
HD Live streaming from Space Station
objects crossing your sky now

STARLINK-1647

Track STARLINK-1647 now!
10-day predictions
STARLINK-1647 is classified as:


NORAD ID: 47978
Int'l Code: 2021-024B
Launch date: March 24, 2021
Source: United States (US)
Launch site: AIR FORCE EASTERN TEST RANGE (AFETR)
Your satellite tracking list
Your tracking list is empty




NASA's NSSDC Master Catalog

Two Line Element Set (TLE):
1 47978U 21024B   26256.50092429  .00003591  00000-0  12742-3 0  9993
2 47978  53.1600 178.3573 0001296  87.0909 273.0240 15.31705145303407
Source of the keplerian elements: AFSPC